Wind_Speed
16 15 14 12 10 7 5 3 1 1 1 2 3 5 7 7 8 8 9 9 10 10 10 10 10 10 11 11 11 11 10 9 9 9 9 9 8 8 7 7 7 6 5 4
18 16 16 15 13 10 8 6 4 3 2 1 1 3 4 5 5 6 7 7 8 9 9 9 10 10 10 10 10 10 10 10 9 8 8 8 8 8 7 7 7 6 5 5
19 18 18 18 16 13 11 9 7 6 6 4 3 2 3 4 3 4 5 5 6 6 7 8 8 9 9 9 9 9 10 9 9 8 8 8 8 7 7 6 6 5 5 4
21 20 21 20 19 16 14 12 11 9 9 7 6 4 4 4 4 4 3 3 4 5 5 6 7 7 7 8 8 8 8 9 8 8 7 7 7 7 6 5 5 4 4 4
22 22 22 22 20 19 17 15 14 13 11 10 8 7 6 5 5 4 3 2 2 3 4 4 5 5 6 6 6 7 7 9 8 8 6 6 6 6 6 5 5 4 4 4
23 23 23 23 22 21 20 18 17 16 14 13 11 10 7 6 6 5 4 4 3 2 2 2 3 4 5 5 5 5 6 7 8 8 7 6 5 5 5 5 5 4 4 4
24 24 24 24 24 23 21 20 18 18 17 16 13 13 9 8 7 6 5 5 4 3 2 1 2 3 4 4 4 4 6 6 7 8 7 7 5 4 4 4 4 4 4 4
24 24 25 26 25 24 23 22 21 20 18 17 16 15 11 9 8 7 6 6 5 4 3 2 2 1 2 3 3 3 4 5 6 6 7 7 6 5 4 3 3 3 3 4
24 23 24 26 25 26 26 24 22 22 21 21 19 17 13 11 11 10 8 7 6 5 5 4 3 2 2 2 2 2 3 4 5 5 6 6 6 5 4 3 3 4 4 5
24 24 24 24 26 27 27 25 25 24 24 23 22 19 15 13 12 11 10 8 8 7 7 6 5 4 4 3 3 3 3 4 5 5 5 6 5 5 5 5 5 5 6 7
25 25 25 26 27 27 28 27 26 25 25 25 24 21 17 15 14 12 11 10 10 9 9 9 8 7 6 6 5 5 5 5 5 5 6 6 5 5 5 6 6 6 7 8
26 26 26 27 27 28 28 27 27 27 26 25 25 22 19 17 16 15 14 13 12 12 12 12 11 10 8 8 7 6 6 6 6 6 6 6 6 6 7 7 7 7 8 7
28 27 27 28 28 28 28 27 28 27 27 27 27 24 21 20 19 17 16 15 15 14 13 14 13 13 11 10 9 8 8 8 8 8 7 8 7 7 8 8 8 8 8 8
29 29 29 29 28 29 29 28 28 28 28 28 27 25 23 21 20 19 18 17 17 16 16 16 16 16 14 12 11 11 10 10 9 9 9 10 9 9 9 9 9 9 9 9
31 30 30 30 29 30 30 30 30 30 29 30 28 27 25 23 22 20 20 19 19 18 17 18 17 17 16 15 14 13 12 12 11 11 11 11 11 11 10 10 11 11 11 11
32 32 31 31 31 31 31 31 31 31 31 31 30 28 26 25 23 23 22 21 20 19 18 18 19 19 17 17 16 15 14 14 14 13 13 12 12 12 12 12 12 12 12 12
33 33 33 32 31 32 33 31 32 32 32 32 32 30 29 28 26 24 24 23 22 21 20 20 20 20 19 18 18 17 16 16 15 15 15 14 14 14 13 14 14 13 14 14
34 34 34 33 33 34 32 32 33 33 33 32 32 32 31 30 28 27 27 27 25 24 23 22 21 21 20 20 19 18 18 18 17 17 17 17 17 16 16 16 15 15 15 15
34 34 35 35 35 35 34 33 34 34 34 32 32 32 33 32 31 30 28 28 27 26 25 24 24 23 22 22 22 21 20 20 20 19 19 19 19 19 18 18 18 17 17 16
35 35 36 36 36 36 33 33 34 34 34 33 33 33 33 34 33 30 30 30 29 29 28 28 27 26 25 25 25 24 23 23 22 21 21 21 21 21 21 21 20 20 20 19
35 36 36 36 36 36 34 34 33 34 32 33 33 33 34 34 33 31 31 31 31 31 31 31 29 29 28 28 27 27 26 26 25 24 24 23 23 24 24 24 23 23 22 21
36 36 36 36 36 36 35 35 35 34 33 32 33 33 34 34 33 32 32 32 32 32 32 32 32 31 31 30 30 29 29 29 28 27 26 26 26 27 27 26 26 25 25 23
37 37 37 36 36 35 35 35 34 34 32 32 32 33 34 34 33 33 33 33 34 32 32 32 33 33 33 32 32 32 31 31 31 30 29 29 28 29 29 29 28 27 26 25
37 38 38 37 36 35 35 35 34 33 33 32 32 33 34 33 32 33 34 35 35 34 33 33 33 34 34 34 34 34 33 33 32 32 31 30 31 31 31 31 29 29 28 28
35 36 36 36 35 35 34 34 34 33 32 31 31 31 32 33 32 32 33 34 34 34 34 34 34 34 35 36 35 35 34 34 34 34 33 32 33 33 32 32 31 30 30 30
34 35 35 35 34 34 34 34 34 33 32 31 31 31 31 32 32 32 32 33 34 35 35 36 35 35 35 35 36 36 36 35 35 35 34 34 35 34 33 32 31 31 30 30
Wind_Direction
215 212 209 213 217 221 229 236 249 347 13 26 39 45 43 45 47 45 42 42 43 45 50 52 50 51 54 54 54 55 60 62 63 64 69 71 77 81 82 80 77 77 75 74
217 215 213 216 221 224 227 230 233 242 257 324 2 22 26 32 46 46 38 37 35 40 46 51 51 49 49 51 52 54 57 57 58 62 68 71 74 78 81 79 74 75 78 76
222 219 219 221 223 225 226 232 237 248 256 265 278 306 353 9 18 28 32 30 30 35 44 49 49 48 47 48 51 55 57 58 60 64 68 74 76 75 76 74 69 68 67 58
221 218 220 223 227 229 229 235 240 248 258 258 266 281 301 325 335 350 12 17 17 29 37 39 43 44 44 46 48 50 56 56 59 65 67 68 70 68 67 66 62 64 58 46
221 219 220 224 227 230 232 234 239 245 254 257 260 266 280 300 314 330 339 336 342 12 30 36 36 35 39 43 44 45 53 53 54 55 58 64 65 59 54 54 50 50 45 35
222 222 222 223 225 228 232 235 240 245 250 253 259 264 269 286 297 303 308 310 303 323 0 23 27 21 29 36 40 39 45 48 47 44 46 53 54 53 49 44 37 31 30 32
223 223 224 225 226 229 232 234 238 244 247 250 255 260 268 278 281 284 288 293 287 285 302 330 4 6 17 22 23 28 34 41 40 38 38 40 42 40 42 34 27 27 25 18
226 224 225 226 228 231 232 235 239 246 250 251 254 259 266 273 270 269 270 276 271 274 285 288 304 318 353 8 16 19 23 28 28 26 26 26 25 19 19 19 19 12 6 359
227 226 227 228 230 232 232 233 238 245 249 252 256 260 260 265 266 262 263 267 265 262 267 268 278 282 306 326 340 356 4 5 3 3 5 10 12 11 9 357 354 346 339 337
228 228 228 231 232 233 235 235 237 241 247 251 256 257 256 262 262 259 263 266 261 258 259 259 267 273 277 292 305 311 317 326 335 341 344 348 353 355 354 351 329 319 320 322
229 231 230 233 234 234 236 238 239 241 246 252 257 259 260 260 258 258 262 263 262 261 259 259 262 268 268 275 283 289 293 302 313 321 326 329 332 334 334 336 336 329 317 312
229 231 232 235 237 237 238 240 240 242 246 250 255 259 259 256 257 258 261 264 265 266 264 261 261 263 265 268 273 282 287 293 299 302 308 314 316 318 321 322 322 323 321 320
231 234 234 236 239 238 241 242 242 245 248 250 255 259 257 255 254 255 257 261 263 265 264 262 262 262 263 265 271 280 283 285 287 290 296 301 302 307 312 315 315 315 315 317
235 238 239 240 243 243 244 245 246 247 249 251 254 258 257 255 253 254 256 260 262 262 263 261 261 261 259 262 270 276 277 278 280 283 287 293 296 298 303 307 309 312 312 316
237 240 242 244 244 244 245 247 249 250 251 254 255 256 256 255 254 253 255 258 259 260 263 262 261 262 258 260 266 271 271 273 276 279 282 286 289 290 292 298 302 308 312 314
238 241 243 245 246 247 248 248 249 251 253 255 256 256 255 254 254 253 254 256 259 259 259 259 259 261 260 261 262 265 266 268 272 275 276 277 282 285 288 292 296 301 304 305
239 242 245 246 247 248 249 249 251 253 253 255 256 256 253 252 253 254 254 255 258 257 259 260 260 260 259 260 261 261 264 267 271 274 275 277 281 284 287 291 295 297 297 298
241 244 246 247 247 249 251 252 254 255 255 255 255 254 253 251 253 255 254 256 256 259 260 260 260 258 258 258 260 261 263 267 271 273 273 276 278 282 284 287 291 294 293 294
243 245 246 248 250 252 252 254 255 256 256 254 254 253 253 252 252 253 254 254 254 257 258 259 258 259 259 258 258 260 264 268 271 273 273 274 276 278 282 285 288 289 289 289
244 245 247 249 252 253 254 255 256 257 255 253 254 252 252 251 250 250 253 254 254 256 256 256 257 258 258 259 259 260 263 266 268 271 274 273 272 274 277 279 282 284 286 286
245 247 248 250 252 253 254 255 256 256 256 254 252 251 251 251 250 250 252 254 255 255 254 254 257 259 258 258 258 259 261 264 266 269 272 273 273 273 274 276 278 280 283 284
246 248 248 249 251 253 254 255 256 258 257 255 252 250 251 252 252 251 251 251 252 253 254 256 256 257 257 257 258 259 260 261 263 266 269 272 273 274 275 276 277 279 282 283
248 248 248 249 252 254 254 255 256 257 258 256 253 251 252 252 252 252 251 250 251 252 253 256 257 256 257 257 258 259 259 260 262 265 267 268 272 274 275 276 277 278 281 283
248 249 250 250 251 252 253 254 255 257 258 258 256 253 253 252 252 253 253 252 252 252 252 253 254 252 253 255 257 257 257 259 261 263 265 267 269 272 273 273 275 277 280 282
248 248 249 250 251 253 253 254 256 257 258 259 258 257 255 253 253 254 253 252 252 251 251 252 253 253 253 255 257 258 260 260 261 263 265 266 268 269 271 274 276 275 277 279
247 247 249 251 252 253 252 253 255 254 254 256 257 256 256 255 254 254 254 253 252 251 251 251 252 254 255 256 257 258 259 259 260 262 264 267 267 269 270 272 274 276 277 278
Height
5891 5894 5895 5897 5899 5900 5900 5901 5901 5901 5901 5901 5901 5902 5901 5901 5900 5899 5898 5897 5896 5895 5893 5892 5891 5890 5889 5887 5886 5885 5884 5883 5882 5881 5881 5880 5880 5880 5880 5880 5880 5880 5880 5880
5890 5892 5894 5895 5897 5898 5899 5900 5901 5901 5901 5901 5901 5902 5902 5901 5901 5900 5899 5898 5897 5896 5895 5894 5893 5891 5890 5889 5888 5887 5886 5885 5884 5883 5882 5882 5881 5881 5881 5881 5881 5881 5881 5881
5887 5891 5892 5893 5895 5897 5898 5899 5900 5901 5901 5901 5901 5902 5902 5902 5901 5901 5900 5899 5898 5897 5895 5895 5894 5893 5892 5891 5890 5889 5887 5886 5885 5885 5884 5883 5883 5882 5882 5882 5882 5882 5882 5882
5884 5887 5889 5891 5893 5895 5896 5898 5899 5899 5900 5900 5901 5902 5902 5902 5902 5901 5900 5900 5899 5897 5896 5896 5895 5894 5893 5892 5891 5890 5889 5888 5887 5886 5885 5885 5884 5884 5884 5884 5883 5883 5883 5882
5881 5883 5885 5888 5891 5892 5894 5896 5897 5897 5898 5899 5900 5900 5902 5901 5901 5901 5900 5900 5899 5898 5897 5896 5896 5895 5894 5893 5893 5891 5890 5889 5888 5887 5886 5886 5885 5885 5885 5884 5884 5884 5883 5882
5877 5879 5882 5885 5888 5889 5891 5893 5894 5895 5896 5897 5898 5899 5900 5900 5901 5901 5900 5899 5899 5898 5898 5897 5896 5895 5894 5894 5893 5892 5892 5890 5889 5888 5887 5886 5886 5886 5885 5885 5884 5884 5883 5883
5872 5875 5878 5881 5883 5886 5888 5890 5891 5892 5893 5895 5896 5896 5899 5899 5899 5900 5899 5899 5898 5898 5898 5897 5896 5895 5895 5894 5893 5893 5892 5891 5890 5889 5888 5887 5886 5886 5885 5885 5884 5884 5883 5883
5868 5871 5874 5877 5879 5882 5884 5887 5889 5890 5891 5893 5893 5894 5897 5897 5897 5897 5898 5898 5897 5897 5897 5897 5896 5895 5895 5894 5893 5893 5892 5891 5890 5889 5889 5887 5887 5886 5886 5885 5885 5884 5883 5882
5864 5868 5870 5873 5875 5878 5880 5882 5885 5887 5887 5889 5890 5892 5894 5894 5895 5896 5896 5897 5896 5896 5896 5896 5895 5895 5894 5893 5893 5892 5892 5891 5890 5890 5889 5888 5887 5886 5886 5885 5884 5883 5883 5882
5860 5863 5866 5868 5871 5873 5876 5878 5881 5882 5883 5884 5886 5888 5891 5892 5893 5894 5894 5895 5895 5895 5894 5894 5894 5894 5893 5893 5892 5892 5891 5891 5890 5889 5888 5888 5887 5886 5885 5885 5884 5883 5882 5881
5855 5859 5862 5864 5865 5868 5871 5874 5875 5878 5879 5881 5882 5887 5888 5890 5890 5891 5892 5892 5892 5892 5892 5892 5892 5892 5892 5892 5891 5891 5890 5890 5889 5888 5888 5887 5886 5886 5885 5884 5883 5882 5881 5880
5850 5853 5856 5859 5861 5863 5866 5868 5871 5873 5875 5876 5878 5884 5884 5886 5887 5888 5889 5889 5889 5890 5890 5890 5890 5890 5890 5890 5890 5889 5889 5888 5888 5887 5886 5886 5885 5885 5884 5883 5882 5881 5879 5878
5844 5847 5850 5853 5857 5858 5860 5863 5865 5868 5870 5871 5873 5879 5880 5881 5883 5884 5885 5886 5886 5886 5886 5886 5887 5887 5887 5887 5887 5887 5887 5887 5886 5885 5885 5884 5884 5884 5883 5882 5880 5879 5878 5877
5839 5842 5845 5848 5850 5853 5855 5857 5859 5862 5863 5865 5868 5871 5874 5876 5878 5879 5880 5881 5882 5882 5882 5882 5883 5884 5884 5884 5884 5885 5884 5884 5884 5883 5883 5882 5882 5881 5881 5880 5879 5878 5877 5875
5832 5835 5838 5841 5844 5846 5848 5851 5853 5855 5858 5860 5863 5865 5868 5871 5872 5874 5875 5876 5877 5877 5878 5878 5879 5879 5880 5880 5881 5881 5881 5881 5881 5880 5880 5880 5879 5879 5878 5877 5876 5875 5874 5873
5825 5828 5831 5834 5837 5839 5841 5844 5846 5849 5851 5853 5855 5858 5862 5864 5866 5868 5869 5870 5871 5872 5873 5873 5874 5875 5876 5876 5877 5877 5878 5878 5878 5877 5876 5876 5876 5875 5875 5874 5874 5873 5872 5871
5818 5821 5824 5827 5829 5831 5834 5837 5839 5841 5844 5847 5848 5852 5854 5857 5859 5861 5863 5864 5865 5867 5868 5869 5869 5870 5871 5871 5872 5872 5873 5873 5874 5873 5873 5872 5872 5872 5871 5871 5870 5869 5868 5868
5811 5814 5816 5819 5822 5823 5829 5830 5832 5834 5837 5839 5841 5843 5846 5849 5852 5854 5856 5857 5859 5861 5862 5863 5864 5865 5866 5866 5867 5867 5868 5869 5869 5869 5869 5869 5868 5868 5867 5866 5866 5865 5865 5864
5803 5806 5808 5811 5813 5815 5820 5822 5824 5826 5828 5831 5832 5834 5837 5840 5843 5846 5848 5850 5852 5854 5855 5857 5858 5859 5860 5861 5861 5862 5863 5863 5864 5864 5864 5864 5864 5863 5862 5862 5862 5861 5860 5859
5795 5798 5801 5803 5804 5807 5812 5814 5815 5818 5819 5822 5824 5826 5828 5831 5834 5839 5840 5842 5844 5846 5848 5849 5850 5852 5853 5854 5855 5856 5857 5857 5858 5858 5858 5858 5858 5858 5857 5856 5856 5855 5855 5854
5787 5789 5792 5794 5796 5798 5803 5804 5806 5809 5812 5813 5815 5817 5820 5822 5826 5830 5832 5834 5836 5837 5839 5840 5842 5844 5845 5847 5848 5849 5850 5850 5851 5851 5851 5852 5852 5851 5851 5850 5850 5849 5849 5848
5778 5781 5783 5785 5787 5792 5794 5795 5798 5799 5802 5804 5806 5808 5811 5814 5817 5819 5822 5824 5826 5828 5830 5831 5833 5835 5837 5838 5840 5841 5842 5843 5843 5844 5844 5845 5844 5844 5844 5844 5843 5843 5842 5841
5770 5773 5774 5777 5781 5783 5784 5786 5789 5791 5793 5795 5797 5799 5801 5804 5806 5809 5811 5814 5816 5818 5820 5822 5824 5826 5827 5829 5831 5833 5834 5834 5835 5836 5836 5836 5837 5836 5836 5836 5836 5836 5835 5834
5761 5763 5765 5768 5771 5774 5776 5777 5780 5782 5784 5786 5788 5790 5792 5794 5796 5799 5801 5803 5806 5808 5810 5812 5814 5815 5817 5819 5821 5822 5824 5825 5826 5827 5828 5828 5828 5829 5828 5828 5828 5828 5827 5827
5752 5754 5756 5758 5762 5764 5767 5769 5771 5773 5775 5777 5779 5781 5782 5784 5786 5789 5791 5793 5795 5797 5799 5801 5804 5805 5807 5809 5811 5812 5814 5815 5817 5818 5818 5818 5819 5820 5820 5819 5819 5819 5820 5819
5743 5745 5748 5750 5753 5755 5758 5760 5762 5764 5766 5768 5770 5771 5773 5774 5777 5779 5780 5782 5784 5786 5788 5790 5793 5795 5796 5798 5800 5802 5804 5805 5807 5808 5809 5810 5810 5811 5811 5811 5810 5810 5810 5810